Location: Chris' Backyard Observatory
(47.3045°N, 122.2839°W)
Time: 06:06:55
(UTC-07:00)

Daily predictions for brighter satellites

Satellite Brightness Start Highest point End
(mag) Time Altitude Azimuth Time Altitude Azimuth Time Altitude Azimuth
Cosmos 909 Rocket 4.5 21:20:15 10° S 21:26:36 55° ESE 21:34:16 10° NE
Cosmos 2278 Rocket 3.7 21:27:20 10° SE 21:30:48 17° E 21:34:16 10° ENE
Gbstr 26 Del rocket 4.2 21:26:07 10° W 21:31:50 57° NNW 21:36:27 10° ENE
Cosmos 1825 3.8 21:30:11 10° SE 21:32:53 19° E 21:35:36 10° NE
Cosmos 1674 Rocket 3.7 21:29:00 10° N 21:33:29 65° E 21:37:53 10° SSE
Cosmos 1340 Rocket 3.2 21:31:57 10° SSW 21:35:54 69° WNW 21:39:58 10° N
USA 234 4.3 21:32:38 10° ENE 21:37:22 21° ESE 21:42:03 10° S
Cosmos 1782 2.8 21:35:14 10° N 21:39:16 72° E 21:43:17 10° SSE
Meteor 2-3 Rocket 4.1 21:33:43 10° SSW 21:39:19 69° WNW 21:44:55 10° N
Cosmos 1939 Rocket 3.1 21:35:29 10° S 21:39:20 70° W 21:43:15 10° NNW
Cosmos 1461 3.2 21:35:56 10° SW 21:40:37 85° NW 21:45:09 10° NE
Cosmos 2056 Rocket 3.5 21:36:12 10° S 21:41:15 58° ESE 21:46:18 10° NNE
Meteor 1-27 Rocket 3.9 21:37:40 10° N 21:43:13 58° ENE 21:48:39 10° SSE
Cosmos 1371 Rocket 4.0 21:37:55 10° SSW 21:43:14 81° ESE 21:48:33 10° NNE
Cosmos 1844 Rocket 3.1 21:38:29 10° S 21:43:45 41° ESE 21:49:01 10° NE
Cosmos 1174 4.0 21:40:51 10° NNW 21:44:13 41° NE 21:46:59 11° ESE
COSMOS 2487 4.0 21:41:46 10° N 21:44:51 25° ENE 21:47:48 10° ESE
Cosmos 2082 Rocket 3.8 21:41:32 10° N 21:46:00 23° NE 21:50:26 10° E
SL-27 R/B 2.5 21:42:33 10° NNW 21:46:15 89° ENE 21:49:53 10° SSE
Coronas F rocket 1.9 21:46:10 10° SSW 21:48:47 56° WNW 21:51:25 10° N
YAOGAN 6 2.6 21:49:10 10° SSE 21:52:38 60° ENE 21:56:07 10° N
Cosmos 1408 3.6 21:49:55 10° SSE 21:53:08 29° E 21:56:21 10° NNE
COS B Rocket 3.5 21:49:12 10° N 21:53:30 62° E 21:57:27 10° S
Cosmos 2263 Rocket 3.7 21:53:19 10° SW 21:58:40 42° NW 22:04:02 10° NNE
SL-8 R/B 4.0 21:54:51 10° SW 21:59:26 44° SSE 22:04:00 10° E
Cosmos 1606 2.7 21:56:49 10° N 22:00:46 76° E 22:04:36 11° SSE
deb Chang Zheng 4 3.9 21:56:40 10° N 22:01:05 74° WNW 22:05:29 10° SSW
Cosmos 1975 Rocket 3.6 21:57:02 10° N 22:01:09 41° ENE 22:04:34 14° SE
MetOp-A 4.2 21:58:22 10° SSE 22:03:43 85° WSW 22:09:07 10° NNW
SL-08 RB Rocket 4.1 22:03:06 13° SE 22:06:58 51° ENE 22:11:28 10° N
Okean 3 3.7 22:03:03 10° N 22:07:18 57° ENE 22:10:49 14° SSE
CENTAUR R/B 3.9 22:02:00 10° NW 22:09:21 46° WSW 22:17:06 10° S
Cosmos 1242 Rocket 3.5 22:06:05 10° N 22:09:25 33° ENE 22:11:41 17° SE
Cosmos 2154 Rocket 4.0 22:05:04 10° S 22:11:16 74° E 22:17:28 10° NNE
Cosmos 1892 4.3 22:07:51 10° SW 22:11:25 37° WNW 22:15:02 10° N
Cosmos 1908 Rocket 3.5 22:09:17 10° S 22:13:39 76° E 22:18:06 10° NNE
USA 245 2.8 22:13:16 16° SSE 22:15:36 87° ENE 22:19:23 10° NNW
NOAA 11 4.2 22:10:39 13° SSE 22:15:37 74° ENE 22:21:08 10° N
CZ-4 SHROUD 3.9 22:13:31 11° S 22:16:28 50° W 22:19:31 10° NNW
Cosmos 1378 Rocket 3.5 22:14:05 10° N 22:18:25 86° W 22:22:16 13° S
Cosmos 1733 Rocket 4.3 22:15:32 10° SSW 22:19:45 44° WNW 22:23:59 10° N
NOSS 2-2 (D) 3.7 22:16:50 10° SW 22:21:03 86° NW 22:26:07 10° NE
Envisat 4.3 22:16:30 10° SSW 22:21:12 37° W 22:25:56 10° NNW
ERBS 4.2 22:18:31 10° WNW 22:21:18 22° SW 22:23:30 13° S
H-2A R/B 2.6 22:17:21 16° SE 22:21:24 47° ENE 22:26:31 10° N
MINOTAUR IV R/B 4.5 22:19:56 10° SSW 22:24:23 72° ESE 22:28:52 10° NNE
NOSS 2-2 (C) 4.1 22:31:34 10° SW 22:35:46 66° NW 22:40:52 10° NE
SPOT 1/Viking Rocket 3.9 22:31:45 13° S 22:36:24 65° WSW 22:41:36 10° NNW
Cosmos 407 Rocket 4.4 22:32:41 10° NW 22:37:38 43° WSW 22:42:19 12° S
Cosmos 1238 Rocket 3.0 22:35:10 10° NNW 22:38:07 49° W 22:40:29 17° SSW
Cosmos 489 Rocket 4.5 22:32:48 10° NNW 22:39:03 89° ENE 22:43:34 20° SSE
Landsat 7 3.8 22:39:28 21° SSE 22:42:40 81° ENE 22:47:27 10° NNW
H-2A R/B 4.4 22:41:00 10° SW 22:44:06 19° W 22:47:09 10° NW
Cosmos 1452 Rocket 3.5 22:39:17 10° SSW 22:44:32 88° ESE 22:49:52 10° NNE
Cosmos 2366 rocket 4.4 22:40:48 20° SSE 22:44:57 48° E 22:50:59 10° NNE
Meteor 1-14 Rocket 4.4 22:42:37 19° SSE 22:46:33 53° E 22:51:59 10° NNE
Cosmos 2084 3.6 22:45:10 22° S 22:47:10 40° ESE 22:50:46 10° NE
Cosmos 1862 4.1 22:45:26 10° SSW 22:49:24 51° WNW 22:53:25 10° N
ASTEX 1 4.4 22:45:44 10° NNE 22:50:05 30° E 22:51:57 23° SE
Cosmos 614 Rocket 4.0 22:48:20 10° NNW 22:53:27 72° ENE 22:56:16 27° SE
Cosmos 1140 Rocket 3.5 22:49:24 10° NNW 22:54:32 77° WSW 22:57:38 24° SSE
Spot 4 4.1 22:52:37 26° SE 22:55:15 59° ENE 23:00:03 10° N
Terra 1.8 22:55:45 26° SSE 22:58:25 81° ENE 23:03:12 10° NNW
NOSS 5 (C) 4.1 22:58:28 32° SSW 22:59:40 59° SE 23:02:46 10° NE
DELTA 2 DEB (DPAF) 4.3 22:58:19 24° S 23:00:59 69° WSW 23:05:27 10° NNW
Okean 2 Rocket 3.3 22:57:26 15° SSW 23:01:06 70° W 23:05:31 10° N
DMSP B5D2-2 4.1 22:56:49 10° NNE 23:01:59 59° E 23:04:56 25° S
ATLAS 5 CENTAUR R/B 4.3 23:00:54 10° WNW 23:05:14 20° WSW 23:09:44 10° SSW
ARGOS 4.1 23:01:36 14° SSW 23:05:56 43° W 23:11:02 10° NNW
Cosmos 2218 Rocket 4.0 23:02:10 19° S 23:06:57 78° E 23:13:23 10° N
CZ-4C R/B 3.8 23:06:05 27° SSW 23:07:57 55° W 23:11:56 10° NNW
Cosmos 1825 3.7 23:04:46 10° SW 23:08:16 34° WNW 23:11:48 10° N
CZ-4B R/B 4.3 23:04:04 10° N 23:08:56 51° WNW 23:13:40 10° SW
Cosmos 1184 Rocket 4.3 23:10:46 13° SW 23:13:21 35° WNW 23:16:29 10° N
Intercosmos 25 3.8 23:11:19 17° SSW 23:13:56 48° WNW 23:17:02 10° N
Cosmos 2278 Rocket 2.2 23:08:26 10° SSW 23:14:08 82° WNW 23:19:51 10° NNE
Cosmos 1812 3.1 23:10:29 10° N 23:14:16 49° ENE 23:15:14 39° ESE
Cosmos 1850 Rocket 4.2 23:09:58 10° NNW 23:15:16 68° WSW 23:18:00 29° S
Cosmos 1844 4.4 23:11:04 10° SW 23:16:44 57° WNW 23:22:29 10° NNE
Cosmos 1833 Rocket 2.8 23:12:18 10° NNW 23:17:56 70° ENE 23:20:41 31° SE
Gbstr 26 Del rocket 3.8 23:14:22 10° WNW 23:19:21 55° N 23:22:48 15° E
COSMOS 2487 4.3 23:17:23 10° NW 23:20:25 25° WSW 23:21:53 19° SW
USA 234 3.1 23:14:35 10° NE 23:21:08 71° SE 23:27:39 10° SW
Cosmos 1727 Rocket 3.9 23:15:15 10° N 23:21:28 90° W 23:24:55 28° S
Cosmos 1844 Rocket 4.2 23:22:29 10° WSW 23:27:42 37° NW 23:32:56 10° NNE
Cosmos 2082 Rocket 2.2 23:25:01 10° NNW 23:30:46 79° WSW 23:33:18 34° SSE
Timation 2 Rocket 4.4 23:26:33 10° NW 23:32:19 49° WSW 23:35:17 27° S
IGS 5A 4.1 23:30:58 31° SSW 23:32:36 48° W 23:36:39 10° NNW
NOSS 1 (D) 4.5 23:30:40 10° NW 23:33:49 81° NE 23:33:51 80° ENE
SL-8 R/B 3.7 23:36:59 10° W 23:41:50 85° N 23:46:39 10° E
Cosmos 2297 3.7 23:40:40 22° SSW 23:44:32 89° WNW 23:50:20 10° NNE
APEX 3.7 23:43:51 29° SW 23:45:52 75° WNW 23:51:03 10° NNE
CZ-4B R/B 3.5 23:46:12 16° ENE 23:46:16 16° ENE 23:48:19 10° NNE
Okean 1 3.3 23:45:18 10° NNW 23:49:22 78° W 23:50:10 55° S
Cosmos 1536 Rocket 4.4 23:47:28 10° NNW 23:51:43 43° W 23:53:22 30° SW
